Regional Weather Roundup
Issued by NWS Sioux Falls, SD

Home | Current Version | Previous Version | Text Only | Print | Product List | Glossary Off
Versions: 1 2 3 4 5 6 7 8 9 10 11 12 13 14 15 16 17 18 19 20 21 22 23 24 25 26 27 28 29 30 31 32 33 34 35 36 37 38 39 40 41 42 43 44 45 46 47 48 49 50

000
ASUS43 KFSD 032110
RWRFSD

WEATHER ROUNDUP FOR SE SOUTH DAKOTA/SW MINNESOTA/NW IOWA
NATIONAL WEATHER SERVICE SIOUX FALLS SD
400 PM CDT SUN MAY 03 2015

NOTE: "FAIR" INDICATES FEW OR NO CLOUDS BELOW 12,000 FEET WITH NO
SIGNIFICANT WEATHER AND OR OBSTRUCTIONS TO VISIBILITY.


SDZ038>040-050-052>070-032200-
SOUTHEAST SOUTH DAKOTA

CITY           SKY/WX    TMP DP  RH WIND       PRES   REMARKS
BROOKINGS      CLOUDY    66  39  37 N28       29.88F
CHAMBERLAIN    PTSUNNY   72  36  27 NE17G29   29.90R
HURON          MOSUNNY   73  35  25 NE18G31   29.88F
MADISON        FAIR      68  37  32 NE28G35   29.89R
MITCHELL       CLOUDY    72  38  29 NE29G35   29.84F
SIOUX FALLS    PTSUNNY   73  45  36 N29G38    29.83R
WINNER         FAIR      76  36  23 NE22G32   29.92R
YANKTON        PTSUNNY   82  54  36 N20G25    29.75S
$$

MNZ071-072-080-081-089-090-097-098-032200-
SOUTHWEST MINNESOTA

CITY           SKY/WX    TMP DP  RH WIND       PRES   REMARKS
FAIRMONT       MOSUNNY   86  48  26 W10       29.74F
JACKSON        MOSUNNY   82  43  24 W9        29.77F
LUVERNE        MOSUNNY   79  50  36 N21G30    29.80R
MARSHALL       MOSUNNY   73  37  27 N23G38    29.85R
MONTEVIDEO     PTSUNNY   70  37  30 NE25G31   29.88R
REDWOOD FALLS  CLOUDY    76  47  35 N20G29    29.81R
TRACY          MOSUNNY   76  41  28 N30G36    29.84R
WORTHINGTON    MOSUNNY   79  54  41 N20G26    29.78S
$$

IAZ001>003-012>014-020>022-031-032-NEZ013-014-SDZ071-032200-
NORTHWEST IOWA

CITY           SKY/WX    TMP DP  RH WIND       PRES   REMARKS
CHEROKEE       MOSUNNY   83  54  36 CALM      29.73F
DENISON        SUNNY     82  61  47 SW13      29.73S
ESTHERVILLE    MOSUNNY   84  49  29 MISG      29.75S
LE MARS        MOSUNNY   86  54  32 W6        29.74S
ORANGE CITY    PTSUNNY   82  52  34 N6        29.75R
SHELDON        MOSUNNY   84  54  34 N3        29.74S
SIOUX CITY     MOSUNNY   84  56  38 N8        29.72F
SPENCER        MOSUNNY   85  52  32 VRB6      29.74S
STORM LAKE     MOSUNNY   84  55  37 SW8G14    29.76S
$$

ABBREVIATIONS USED IN REMARKS
   TC - TEMPERATURE IN CELSIUS
  WCI - WIND CHILL INDEX
   HX - HEAT INDEX
  VSB - VISIBILITY



USA.gov is the U.S. government's official web portal to all federal, state and local government web resources and services.